Volver al catálogo

FENGYUN 1C DEB

ActivoSSO
NORAD 30281·DEBRIS·🇨🇳 China

Lanzado May 10, 1999 desde Taiyuan Satellite Launch Center

Loading…

Próximos Pases (próximas 24 horas)

TLE

ActualizadoSource: Space-Track

Época: Sep 14, 2026, 16:24 UTC

1 30281U 99025YS  26257.68362088  .00000205  00000-0  13852-3 0  9991
2 30281  98.7793 245.7692 0028620 174.1376 250.6382 14.10666729 11124

Sigue FENGYUN 1C DEB en tiempo real con AllMySat

Download on the App Store